Location: Newark
(37.8333°N, 119.5000°W)
Time: 11:44:23
(UTC+00:00)

Tiros 1 despin weight - Pass Details

Date: 28 August 2019
Orbit: 594 x 642 km, 48.2° (Epoch: 20 September)

Event Time Altitude Azimuth Distance (km) Brightness Sun altitude
Exits shadow 11:50:25 38° 257° (WSW) 953 ? -18.2°
Maximum altitude 11:51:27 44° 221° (SW) 854 ? -18.0°
Drops below altitude 10° 11:55:48 10° 149° (SSE) 1,991 ? -17.2°
Sets 11:58:12 0° 143° (SE) 2,903 ? -16.8°
